Teterboro, NJ

3:27 AM EDT on September 20, 2019 (GMT -0400)
Teterboro

Weather History for KTEB - August, 2019

Change the Weather History Date:

Monday, August 19, 2019

  Actual Average Record
Temperature  
Mean Temperature 82 °F -  
Max Temperature 93 °F 82 °F 93 °F (2010)
Min Temperature 71 °F 63 °F 57 °F (1997)
Cooling Degree Days 17    
Growing Degree Days 32 (Base 50)    
Moisture  
Dew Point 69 °F    
Average Humidity 65    
Maximum Humidity 81    
Minimum Humidity 46    
Precipitation  
Precipitation 0.00 in - - ()
Sea Level Pressure  
Sea Level Pressure 29.95 in    
Wind  
Wind Speed 4 mph ()    
Max Wind Speed 13 mph    
Max Gust Speed 22 mph    
Visibility 10.0 miles    
Events Thunderstorm    
Averages and records for this station are not official NWS values.
T = Trace of Precipitation, MM = Missing Value Source: Averaged Metar Reports

Daily Weather History Graph

Daily Weather History Graph

Search for Another Location

Airport or City:

Astronomy

Aug. 19, 2019 Rise Set
Actual Time 6:10 AM EDT 7:49 PM EDT
Civil Twilight 5:40 AM EDT 8:18 PM EDT
Nautical Twilight 5:05 AM EDT 8:53 PM EDT
Astronomical Twilight 4:27 AM EDT 9:30 PM EDT
Moon 10:07 PM EDT (8/19) 9:50 AM EDT (8/19)
Length of Visible Light 14h 37m
Length of Day
13h 39m
Waning Gibbous, 85% of the Moon is Illuminated
Aug 19
Waning Gibbous
Aug 23
Last Quarter
Aug 30
New
Sep 5
First Quarter
Sep 14
Full

Hourly Weather History & Observations

Time (EDT) Temp. Heat Index Dew Point Humidity Pressure Visibility Wind Dir Wind Speed Gust Speed Precip Events Conditions
12:51 AM 71.1 °F - 63.0 °F 75% 29.95 in 10.0 mi Calm Calm - N/A   Clear
1:51 AM 72.0 °F - 64.0 °F 76% 29.94 in 10.0 mi East 4.6 mph - N/A   Partly Cloudy
2:51 AM 73.0 °F - 64.0 °F 73% 29.94 in 10.0 mi NNW 4.6 mph - N/A   Clear
3:51 AM 72.0 °F - 66.0 °F 81% 29.96 in 10.0 mi North 4.6 mph - N/A   Clear
4:51 AM 73.0 °F - 66.0 °F 79% 29.97 in 10.0 mi Calm Calm - N/A   Clear
5:51 AM 72.0 °F - 66.0 °F 81% 29.98 in 10.0 mi Calm Calm - N/A   Clear
6:51 AM 73.9 °F - 66.0 °F 76% 29.98 in 10.0 mi Calm Calm - N/A   Clear
7:51 AM 75.9 °F - 69.1 °F 79% 29.98 in 10.0 mi Calm Calm - N/A   Clear
8:51 AM 78.1 °F - 70.0 °F 76% 29.98 in 10.0 mi SSW 5.8 mph - N/A   Clear
9:51 AM 82.9 °F 88.8 °F 73.0 °F 72% 29.97 in 10.0 mi SW 11.5 mph - N/A   Clear
10:51 AM 86.0 °F 93.0 °F 73.0 °F 65% 29.97 in 10.0 mi WSW 8.1 mph - N/A   Clear
11:51 AM 88.0 °F 93.8 °F 71.1 °F 57% 29.96 in 10.0 mi South 6.9 mph - N/A   Clear
12:51 PM 90.0 °F 96.4 °F 71.1 °F 54% 29.96 in 10.0 mi SW 9.2 mph - N/A   Clear
1:51 PM 91.9 °F 97.4 °F 70.0 °F 48% 29.94 in 10.0 mi West 12.7 mph 18.4 mph N/A   Clear
2:51 PM 93.0 °F 100.1 °F 71.1 °F 49% 29.92 in 10.0 mi Variable 5.8 mph - N/A   Clear
3:51 PM 91.9 °F 98.4 °F 71.1 °F 50% 29.91 in 10.0 mi WSW 6.9 mph - N/A   Scattered Clouds
4:28 PM 89.1 °F 92.1 °F 66.9 °F 48% 29.90 in 10.0 mi NW 12.7 mph 21.9 mph N/A   Scattered Clouds
4:51 PM 90.0 °F 92.8 °F 66.9 °F 46% 29.90 in 10.0 mi NW 6.9 mph - N/A Thunderstorm Clear
5:00 PM 91.0 °F 95.2 °F 68.0 °F 47% 29.91 in 10.0 mi WNW 9.2 mph - N/A   Clear
5:51 PM 86.0 °F 91.5 °F 71.1 °F 61% 29.93 in 10.0 mi ESE 11.5 mph - N/A   Overcast
6:51 PM 82.9 °F 86.5 °F 69.1 °F 63% 29.95 in 10.0 mi South 8.1 mph - N/A   Partly Cloudy
7:51 PM 81.0 °F 84.4 °F 70.0 °F 69% 29.96 in 10.0 mi South 5.8 mph - N/A   Mostly Cloudy
8:51 PM 80.1 °F 82.9 °F 69.1 °F 69% 29.97 in 10.0 mi SW 3.5 mph - N/A   Clear
9:51 PM 80.1 °F 82.9 °F 69.1 °F 69% 29.99 in 10.0 mi WSW 5.8 mph - N/A   Clear
10:51 PM 79.0 °F - 69.1 °F 72% 29.99 in 10.0 mi SSW 3.5 mph - N/A   Clear